Wetbulb
67.38 68.21 68.96 69.73 71.00 71.78 72.13 72.22 72.64 72.81 73.25 73.65 74.80 74.94 75.14 75.91 76.22 75.04 75.23 75.75 74.66 74.25 74.44 74.87 77.34 76.87 77.05 76.97 76.71 76.01 75.03 74.08 72.98
65.58 67.58 68.67 69.21 70.93 71.90 72.07 72.54 72.52 72.92 73.26 73.82 74.30 74.48 75.03 75.15 75.68 75.63 75.25 76.21 76.45 74.84 76.66 75.52 76.54 77.22 77.01 77.17 76.53 75.90 74.98 73.08 72.46
63.19 65.12 67.79 69.07 70.51 71.24 72.02 72.26 72.98 73.18 73.78 73.74 74.49 74.91 74.85 74.71 75.09 75.53 75.84 76.09 75.60 76.05 76.65 76.78 76.67 76.85 77.10 76.95 76.49 75.89 75.19 74.01 73.08
62.36 63.99 65.51 67.22 69.90 71.47 71.98 71.99 72.56 72.75 73.21 73.72 74.06 74.52 75.01 74.78 74.99 75.29 75.64 75.63 75.86 76.05 76.74 76.90 76.71 76.72 76.53 76.47 76.21 75.64 74.87 74.52 73.33
62.71 65.20 66.47 67.03 68.17 69.59 70.48 71.74 71.81 72.30 72.90 73.38 74.18 74.49 74.76 74.73 75.06 75.14 75.01 75.02 75.87 76.24 76.19 76.59 77.11 76.86 76.51 76.19 76.16 75.85 74.73 74.23 73.41
61.52 63.67 65.63 67.10 67.49 68.74 69.84 70.96 71.69 71.84 72.41 72.67 73.42 74.51 74.58 74.80 74.83 74.72 74.70 75.06 75.73 76.15 76.21 76.41 76.08 76.76 76.60 76.00 75.72 75.51 74.96 74.80 74.04
60.63 62.53 65.78 66.91 67.09 69.15 69.81 70.60 71.23 71.73 72.17 72.94 73.51 73.66 74.22 74.42 74.71 74.99 74.94 75.32 75.72 75.92 76.29 76.22 76.41 76.81 76.95 76.47 75.65 75.55 74.84 74.47 74.37
59.79 61.40 62.92 64.77 66.48 68.83 70.16 70.57 71.14 71.46 72.24 73.15 73.59 73.70 73.74 74.19 75.15 75.74 75.75 75.45 75.61 76.06 76.27 76.10 76.44 76.59 76.70 76.52 75.55 74.80 74.80 74.60 74.03
60.39 60.02 62.47 65.33 67.77 68.29 69.01 70.30 70.63 71.28 71.81 72.38 73.57 73.32 72.99 74.39 75.45 75.51 75.45 75.48 75.57 75.94 75.94 75.87 76.45 76.22 76.36 76.19 75.01 68.81 67.47 72.78 73.87
60.94 61.49 62.64 64.01 67.08 68.32 69.29 69.46 71.04 70.58 71.48 72.35 73.00 73.26 73.59 74.11 74.83 75.01 75.09 75.56 75.72 75.36 75.58 75.87 75.74 75.82 76.06 75.87 76.18 64.87 64.77 67.09 74.67
60.94 61.85 62.39 64.27 63.03 66.61 70.05 69.48 69.47 71.62 72.24 72.64 72.76 73.34 74.00 74.02 73.87 74.46 75.20 75.37 75.19 75.54 75.66 75.44 75.50 75.52 75.77 75.75 75.66 63.48 62.68 65.78 74.20
60.98 62.49 63.46 63.98 63.40 65.25 70.34 70.26 71.25 71.91 72.05 72.62 72.89 73.12 73.69 74.23 73.98 74.50 74.97 74.49 74.62 75.07 75.35 75.44 75.49 75.97 75.84 75.38 75.83 61.71 61.33 65.14 72.92
59.67 60.34 61.78 63.00 63.77 65.72 66.83 69.90 70.07 71.06 71.11 72.07 72.40 73.41 73.75 74.43 75.20 74.88 74.69 75.07 75.14 75.41 75.55 75.22 75.44 75.65 76.03 72.30 75.70 61.03 59.75 64.37 73.58
62.99 63.60 62.35 62.79 63.55 65.10 67.42 68.40 69.21 70.62 71.60 71.78 73.25 74.10 74.57 75.36 75.95 75.72 75.53 74.66 75.69 76.26 75.82 75.74 75.40 75.21 75.57 75.57 74.19 73.42 58.46 58.60 73.66
69.98 70.37 69.19 62.56 63.55 66.31 68.89 69.92 70.05 71.30 72.46 73.60 74.31 74.61 75.10 76.11 76.31 75.61 75.19 75.55 74.98 76.17 74.84 75.33 75.59 75.29 73.84 74.58 75.68 65.64 57.32 57.10 63.09
69.40 70.45 70.29 69.67 68.84 69.35 70.04 71.00 72.02 71.31 71.85 73.15 73.88 74.52 75.31 75.91 76.54 76.48 76.67 76.09 75.80 73.45 72.94 72.75 73.33 72.33 72.40 72.87 72.95 73.56 57.62 55.29 57.24
65.98 68.01 68.71 68.30 67.68 67.70 67.99 70.47 71.78 72.30 73.66 74.15 73.83 74.34 74.90 75.51 75.77 75.74 76.57 75.86 75.59 74.50 72.86 72.09 71.44 71.65 71.17 71.67 72.43 70.67 63.05 61.90 62.80
63.70 64.16 65.20 66.48 66.68 66.78 66.66 68.14 68.14 68.12 68.68 73.08 74.48 73.32 73.23 73.98 74.39 74.22 75.62 76.13 75.66 74.41 74.37 73.44 73.45 74.29 72.16 71.94 66.68 63.63 57.76 60.82 63.81
64.64 64.39 65.76 65.71 65.77 65.93 66.17 66.87 67.25 67.62 68.30 67.87 69.99 71.37 72.35 71.96 72.56 73.60 74.62 74.27 69.40 53.63 52.95 54.74 53.47 56.19 68.22 68.72 57.14 50.03 50.75 51.30 51.30
60.84 64.28 64.79 65.27 66.50 67.60 67.89 67.85 67.88 68.96 69.21 68.33 68.25 68.22 69.86 71.31 68.37 72.10 73.61 67.69 69.51 65.51 55.81 48.22 50.03 50.94 51.84 53.11 52.93 50.39 50.03 50.57 50.39
MSLP
999.08 1000.12 1000.90 1001.64 1002.23 1003.15 1004.04 1004.93 1006.00 1006.98 1007.92 1008.84 1009.57 1010.20 1010.79 1011.46 1012.02 1012.43 1012.76 1013.21 1013.56 1014.00 1014.37 1014.68 1015.13 1015.75 1016.04 1016.46 1016.98 1017.51 1018.03 1018.52 1018.80
997.77 998.42 999.31 1000.02 1000.79 1001.64 1002.55 1003.43 1004.60 1005.75 1006.60 1007.42 1008.19 1008.81 1009.73 1010.40 1011.02 1011.58 1011.83 1012.32 1012.88 1013.31 1013.78 1014.12 1014.65 1015.15 1015.52 1015.78 1016.29 1016.85 1017.51 1017.97 1018.44
996.46 997.05 997.99 998.76 999.62 1000.31 1001.15 1001.95 1002.99 1004.19 1005.33 1006.15 1006.95 1007.75 1008.48 1009.19 1009.74 1010.35 1010.89 1011.63 1012.05 1012.44 1012.85 1013.60 1014.10 1014.65 1015.00 1015.33 1015.78 1016.43 1016.97 1017.34 1017.91
995.35 995.97 996.60 997.31 998.13 998.91 999.71 1000.86 1002.09 1002.89 1003.86 1004.91 1005.90 1006.60 1007.20 1007.95 1008.73 1009.50 1010.23 1010.78 1011.27 1011.67 1012.14 1012.76 1013.43 1013.97 1014.31 1014.72 1015.25 1015.83 1016.35 1016.66 1017.07
995.14 995.56 995.92 996.51 997.07 998.13 999.08 999.78 1000.59 1001.31 1002.37 1003.34 1004.01 1004.87 1005.98 1006.55 1007.35 1008.17 1008.77 1009.23 1009.91 1010.61 1011.16 1011.87 1012.45 1013.01 1013.47 1013.95 1014.41 1014.93 1015.45 1015.91 1016.21
994.76 995.33 995.95 996.22 996.82 997.17 997.66 998.33 999.18 999.93 1000.69 1001.44 1002.61 1004.02 1004.75 1005.73 1006.24 1006.85 1007.28 1007.92 1008.56 1009.43 1010.03 1010.65 1011.27 1012.02 1012.55 1013.00 1013.53 1014.00 1014.46 1014.96 1015.33
994.34 994.78 995.21 995.70 996.19 996.33 996.72 997.34 998.06 998.80 999.52 1000.38 1001.36 1002.38 1003.29 1004.01 1004.64 1005.09 1005.85 1006.75 1007.50 1008.09 1008.76 1009.58 1010.20 1010.76 1011.36 1011.92 1012.53 1013.07 1013.52 1014.03 1014.51
994.28 994.49 994.71 994.96 995.40 995.65 996.08 996.78 997.32 997.95 998.57 999.61 1000.29 1001.32 1001.97 1002.29 1002.99 1003.91 1004.79 1005.55 1006.28 1007.07 1007.83 1008.15 1008.71 1009.47 1010.19 1010.75 1011.33 1011.89 1012.53 1012.96 1013.48
993.81 993.94 993.93 994.15 994.57 995.12 995.50 995.75 996.17 996.93 997.58 998.09 999.09 999.94 1000.22 1000.94 1002.07 1002.84 1003.39 1004.13 1004.84 1005.76 1006.54 1007.27 1007.88 1008.31 1008.77 1009.33 1009.73 1010.33 1011.18 1011.68 1012.18
992.97 992.88 993.08 993.28 993.70 994.14 994.46 994.76 994.96 995.56 996.15 997.53 998.13 998.53 999.19 1000.23 1001.08 1001.71 1002.31 1003.14 1004.00 1004.43 1005.13 1006.01 1006.34 1006.84 1007.40 1007.92 1008.45 1009.01 1009.94 1010.69 1010.93
992.39 992.22 992.20 992.62 992.84 993.19 993.43 993.66 994.19 994.71 995.68 996.42 997.27 997.96 998.83 999.61 1000.26 1000.69 1001.52 1002.33 1002.76 1003.19 1003.66 1004.20 1004.88 1005.46 1006.02 1006.66 1007.04 1007.78 1008.72 1009.56 1010.07
991.93 991.73 991.69 991.88 992.25 992.64 992.74 992.86 993.12 994.05 994.82 995.58 996.54 997.06 997.68 998.32 999.06 999.80 1000.62 1001.11 1001.38 1001.91 1002.56 1002.96 1003.38 1004.08 1004.87 1005.27 1005.61 1006.67 1007.77 1008.92 1009.26
991.18 991.32 991.38 991.43 991.74 992.13 992.30 992.42 992.89 993.65 994.09 994.90 995.43 995.67 995.83 996.62 997.62 998.49 998.97 999.56 1000.54 1001.06 1001.67 1001.77 1002.37 1002.65 1003.24 1004.03 1004.65 1005.71 1006.69 1007.80 1007.91
991.39 991.32 991.20 991.24 991.45 991.72 991.97 992.24 992.46 992.75 993.32 993.83 993.67 995.43 996.39 997.05 997.58 998.10 998.84 999.88 1000.70 1001.31 1001.84 1002.58 1001.68 1001.96 1001.56 1002.17 1003.57 1004.65 1005.67 1006.43 1006.87
991.58 991.76 991.15 991.09 991.47 991.93 992.15 992.23 992.45 992.54 992.88 993.34 994.06 994.64 995.23 995.73 996.29 997.04 997.79 998.48 999.30 998.51 1000.97 1002.36 1003.12 1003.30 1002.44 1002.01 1001.92 1003.00 1004.78 1005.49 1006.06
992.30 992.18 991.56 991.65 991.76 992.12 992.56 992.34 992.38 992.82 993.33 993.45 993.72 994.25 994.55 995.04 995.65 996.21 996.76 997.50 998.27 999.10 1000.17 1000.69 1001.60 1002.72 1003.18 1003.24 1003.22 1002.41 1002.87 1004.17 1005.70
992.93 992.57 992.50 992.49 992.48 992.53 992.95 992.86 992.81 992.89 993.09 993.17 993.16 993.45 993.65 994.13 994.63 995.06 995.64 996.42 997.25 997.85 998.51 998.21 998.23 1000.42 1001.25 1001.67 1001.45 1003.11 1003.22 1004.17 1003.95
993.65 993.35 993.31 993.22 993.02 993.18 993.44 993.61 993.59 993.73 993.76 993.75 993.51 993.54 993.58 993.73 993.87 994.37 994.60 994.92 995.55 996.28 996.64 996.62 995.63 996.91 998.05 999.15 999.73 1001.04 1003.18 1004.07 1004.79
994.58 994.38 994.16 993.98 994.05 994.08 994.26 994.31 994.39 994.48 994.46 994.41 994.20 993.89 993.67 993.52 993.41 993.39 993.75 994.39 995.63 996.69 996.78 996.44 995.85 996.30 997.59 998.13 998.31 1000.02 1002.14 1002.89 1003.79
996.08 995.29 995.00 994.74 994.71 994.71 994.74 994.78 994.68 994.65 994.69 994.66 994.59 994.50 994.26 993.77 993.63 993.43 993.74 994.60 995.28 996.18 997.21 997.20 996.77 997.12 997.80 998.29 999.88 1000.19 1001.37 1002.19 1002.10
Wind_Speed
19 22 23 25 25 23 22 24 23 22 21 20 20 20 20 18 18 13 13 14 12 11 10 10 11 12 11 11 11 10 8 6 7
18 22 24 27 26 24 23 23 23 23 23 22 22 23 19 19 17 18 15 16 14 12 11 10 12 12 12 12 11 12 10 8 9
19 19 21 23 23 24 22 24 23 24 23 23 22 21 19 17 19 19 18 14 15 15 13 13 12 13 12 12 12 12 12 9 9
20 19 20 21 21 23 24 21 20 22 23 23 22 21 20 20 19 19 18 16 16 16 14 14 14 14 14 13 12 13 13 12 11
12 14 17 18 20 19 20 21 21 23 22 23 24 22 21 21 19 19 20 19 19 17 16 16 15 15 15 15 14 14 15 15 13
12 12 13 14 14 17 19 20 21 21 23 25 24 20 21 20 20 20 21 21 20 18 17 17 18 16 16 16 16 15 15 16 16
10 10 11 11 13 15 17 19 19 20 22 22 21 22 22 22 22 23 21 20 20 20 19 18 17 17 17 16 17 16 16 16 16
8 10 10 12 14 14 15 16 17 19 19 19 20 20 21 24 22 21 20 20 20 19 18 19 19 18 17 17 17 14 17 17 17
16 13 13 12 11 13 15 17 19 18 19 21 21 21 24 21 20 20 22 21 21 20 20 19 18 19 19 19 15 18 19 18 16
16 14 13 13 14 13 14 17 18 20 21 16 20 22 20 19 19 20 21 20 19 21 21 19 20 20 20 20 19 20 22 22 16
19 18 17 13 14 13 15 17 17 17 17 19 19 18 17 16 17 20 19 19 21 21 20 21 20 20 20 19 18 20 23 26 19
20 18 16 13 12 12 11 14 15 15 17 17 17 19 18 19 20 19 19 21 22 20 19 19 20 17 20 21 20 21 24 22 18
17 17 15 13 11 9 10 10 13 15 17 17 18 19 22 20 20 20 22 22 20 18 18 18 16 19 20 22 19 20 23 23 14
6 9 12 10 7 8 6 8 13 16 14 18 19 11 12 14 16 17 15 13 12 14 15 14 17 19 19 21 19 17 24 27 16
4 2 3 5 7 5 3 4 10 11 12 10 10 11 13 15 16 15 14 16 15 16 12 12 13 14 13 13 16 17 20 24 25
6 6 9 8 9 10 6 5 7 9 7 7 9 12 13 14 14 14 14 16 15 11 14 12 9 9 10 9 8 10 21 25 19
7 8 8 9 11 12 9 8 9 7 5 4 7 10 11 12 14 15 16 14 14 15 15 14 15 14 13 12 11 6 4 8 15
7 8 8 8 10 10 10 7 7 5 4 2 4 7 9 12 12 15 14 15 15 16 18 18 20 19 16 15 11 9 11 12 9
7 8 8 9 9 8 6 6 6 6 5 4 5 5 5 7 9 11 13 11 7 6 13 11 6 9 11 7 20 29 29 29 25
6 9 9 9 8 8 7 6 7 6 6 4 3 4 7 6 6 9 7 7 10 9 7 12 13 21 24 25 26 29 28 25 22
Wind_Direction
213 208 210 211 207 204 201 202 203 201 197 202 200 201 203 204 208 210 213 210 214 217 220 218 206 199 206 202 204 198 194 195 198
209 209 210 210 208 205 203 202 200 200 200 201 199 202 202 205 205 211 211 212 207 212 218 219 208 203 201 202 199 194 187 202 197
218 217 212 213 210 209 204 205 198 198 200 201 201 201 202 206 206 207 211 206 208 211 207 212 206 205 203 202 200 194 196 198 197
214 216 214 213 210 209 209 205 202 201 198 197 199 201 201 203 205 207 208 209 210 211 205 201 206 208 208 206 201 197 201 206 200
232 226 219 217 215 210 210 205 202 203 199 198 200 200 201 203 201 202 204 205 207 206 204 201 204 206 206 207 206 198 203 206 206
229 227 227 225 215 211 209 207 205 202 200 204 202 199 200 202 203 201 204 205 205 204 202 202 202 204 206 207 208 202 205 210 212
256 239 212 211 218 214 211 208 203 203 206 204 201 198 199 201 203 204 203 204 206 203 200 200 201 202 205 205 208 208 206 208 215
285 258 234 215 216 214 212 207 204 206 204 199 199 198 200 206 204 203 201 203 205 205 203 202 200 197 202 203 208 209 208 207 211
269 262 251 244 225 213 211 206 203 201 202 200 193 195 204 203 200 200 202 201 200 200 203 205 202 201 200 201 206 197 192 197 206
250 248 240 237 227 218 217 212 204 202 203 193 197 200 204 200 199 202 204 201 199 202 201 200 203 204 201 205 208 187 186 195 204
249 248 250 236 237 232 217 220 214 211 194 195 199 205 204 202 200 205 200 200 204 203 200 201 201 203 204 207 211 185 185 194 211
242 249 252 245 249 241 233 212 209 197 194 192 194 203 202 199 201 202 201 203 205 206 202 200 203 202 203 208 212 181 186 187 210
240 239 242 240 231 221 221 216 204 193 200 192 201 203 206 200 200 202 202 204 208 206 208 207 201 201 204 209 214 181 184 188 213
248 267 243 233 217 218 220 201 194 199 199 203 212 211 213 208 207 211 210 202 205 214 217 232 207 211 200 204 202 198 186 191 204
140 206 135 165 154 128 105 173 195 196 196 196 196 196 198 200 199 201 199 197 203 184 199 221 241 245 229 212 200 202 190 190 204
141 136 102 112 128 113 90 85 155 149 149 166 176 190 197 201 201 201 201 196 196 186 186 190 219 228 238 242 235 202 173 178 181
128 113 107 111 105 96 86 76 88 106 136 179 188 197 198 197 199 199 200 198 192 192 191 202 187 205 204 209 195 218 177 183 167
122 104 99 92 87 85 79 68 66 52 30 338 206 218 218 214 213 205 203 204 199 199 208 209 186 200 191 192 170 149 129 134 122
120 112 103 90 89 89 85 77 68 45 22 350 316 278 237 233 228 217 215 204 212 14 327 195 164 174 199 163 134 135 132 139 129
100 91 91 91 83 76 76 75 61 38 20 3 350 334 312 285 259 248 216 195 206 197 34 32 152 152 146 141 147 139 152 160 154